Вернуться в каталог

STARLINK-31241

АктивенСвязьVLEO
NORAD 59045·PAYLOAD·🇺🇸 United States

Запущен Feb 25, 2024 с Cape Canaveral Space Force Station

Loading…

Ближайшие Пролёты (ближайшие 24 часа)

TLE

СвежийSource: CelesTrak SupGP

Эпоха: Sep 14, 2026, 21:00 UTC

1 59045C 24038Y   26257.87548611  .00058632  00000+0  21235-2 0  2577
2 59045  43.0043  35.3779 0001726 280.5589 273.6840 15.27550667    11

Отслеживайте STARLINK-31241 в реальном времени с AllMySat

Download on the App Store